Weather in Cancun

Mexico     21°10′09″N   86°50′41″W
temp.,
°C
wind,
m/s
gust,
m/s
humid.,
%
clouds,
%
prec.,
mm/h
press.,
hPa
HPBL,
m
14 april, wed
wed1401:00+26ese46861 0.1 1015531
04:00+26e57815 0.0 1014525
07:00+26e687594 0.0 1016834
10:00+27ese67693 0.0 1017986
13:00+28se78689 0.0 10151127
16:00+28ese78725 0.1 10131066
19:00+26ese78822 0.4 1014687
22:00+26ese78775 0.1 1015706
15 april, thu
thu1501:00+25ese677552 0.1 1014578
04:00+25ese577633 0.0 1013536
07:00+25se687073 0.0 1013620
10:00+27se6858100 0.0 1014937
13:00+28sse7859100 0.0 10131069
16:00+28sse676270 0.0 10101014
19:00+26se57715 0.0 1011719
22:00+26se58755 0.0 1013688
16 april, fri
fri1601:00+26se69761 0.0 1012876
04:00+26se79732 0.0 1010806
07:00+26se68730 0.0 1011728
10:00+27sse79660 0.0 1012968
13:00+28sse810660 0.0 10101028
16:00+28sse810690 0.0 1008988
19:00+26sse79770 0.0 1009860
22:00+26se687711 0.0 1011787
17 april, sat
sat1701:00+26se697983 0.0 1010854
04:00+26se7107694 0.0 1009837
07:00+26sse8117666 0.0 1010973
10:00+28sse8117272 0.0 10111119
13:00+29sse810693 0.1 10111102
16:00+28sse79720 0.0 1009967
19:00+27sse698258 0.0 1010802
22:00+27se61085100 0.1 1012782
18 april, sun
sun1801:00+26se7108726 0.1 1012743
04:00+26se71087100 0.0 1011775
07:00+27se710867 0.1 1012827
10:00+28sse810763 0.0 1013934
13:00+29sse69715 0.1 1012967
16:00+29sse79745 0.2 1011813
19:00+27se59819 0.4 1011624
22:00+27se71087100 0.0 1013614